| time (UTC) | temp F | wind direction | speed knots | gust knots | rain 1hr in | rain 24hr in | rain mn in | humidity % | barometer mb |
| 20260902231405 | 94 | 145 | 0.0 | 1.7 | 0.00 | 0.00 | 0.00 | 60 | 1014.6 |
| 20260902230905 | 94 | 218 | 0.0 | 2.6 | 0.00 | 0.00 | 0.00 | 60 | 1014.7 |
| 20260902230405 | 94 | 319 | 0.0 | 5.2 | 0.00 | 0.00 | 0.00 | 60 | 1014.8 |
| 20260902225905 | 94 | 273 | 0.9 | 2.6 | 0.00 | 0.00 | 0.00 | 59 | 1014.8 |
| 20260902224905 | 94 | 318 | 0.0 | 2.6 | 0.00 | 0.00 | 0.00 | 59 | 1014.8 |
| 20260902224405 | 95 | 282 | 0.9 | 2.6 | 0.00 | 0.00 | 0.00 | 58 | 1014.8 |
| 20260902223906 | 94 | 249 | 0.0 | 5.2 | 0.00 | 0.00 | 0.00 | 58 | 1014.7 |
| 20260902223405 | 95 | 298 | 1.7 | 2.6 | 0.00 | 0.00 | 0.00 | 57 | 1014.7 |
| 20260902222904 | 95 | 275 | 0.0 | 2.6 | 0.00 | 0.00 | 0.00 | 57 | 1014.6 |
| 20260902222405 | 95 | 263 | 0.9 | 7.0 | 0.00 | 0.00 | 0.00 | 56 | 1014.6 |
| 20260902221905 | 95 | 199 | 0.9 | 2.6 | 0.00 | 0.00 | 0.00 | 58 | 1014.7 |
| 20260902221405 | 96 | 312 | 0.9 | 2.6 | 0.00 | 0.00 | 0.00 | 57 | 1014.8 |
| 20260902220905 | 96 | 342 | 0.0 | 2.6 | 0.00 | 0.00 | 0.00 | 57 | 1014.8 |
| 20260902220405 | 96 | 321 | 0.9 | 4.3 | 0.00 | 0.00 | 0.00 | 57 | 1014.9 |
| 20260902215905 | 96 | 304 | 0.0 | 1.7 | 0.00 | 0.00 | 0.00 | 57 | 1015.0 |
| 20260902215405 | 96 | 44 | 0.9 | 4.3 | 0.00 | 0.00 | 0.00 | 57 | 1015.2 |
| 20260902213904 | 95 | 329 | 1.7 | 5.2 | 0.00 | 0.00 | 0.00 | 57 | 1015.0 |
| 20260902212905 | 95 | 0 | 1.7 | 5.2 | 0.00 | 0.00 | 0.00 | 57 | 1015.0 |
| 20260902212404 | 96 | 346 | 2.6 | 5.2 | 0.00 | 0.00 | 0.00 | 56 | 1015.1 |
| 20260902211904 | 96 | 294 | 0.9 | 4.3 | 0.00 | 0.00 | 0.00 | 58 | 1015.1 |
| 20260902211405 | 95 | 169 | 0.9 | 2.6 | 0.00 | 0.00 | 0.00 | 57 | 1015.2 |
| 20260902210404 | 96 | 318 | 1.7 | 5.2 | 0.00 | 0.00 | 0.00 | 57 | 1015.2 |
| 20260902205404 | 95 | 215 | 0.0 | 4.3 | 0.00 | 0.00 | 0.00 | 58 | 1015.3 |
| 20260902204404 | 96 | 42 | 0.9 | 5.2 | 0.00 | 0.00 | 0.00 | 57 | 1015.3 |
| 20260902203904 | 96 | 309 | 0.9 | 2.6 | 0.00 | 0.00 | 0.00 | 56 | 1015.3 |
| 20260902203404 | 96 | 226 | 1.7 | 5.2 | 0.00 | 0.00 | 0.00 | 57 | 1015.3 |
| 20260902202905 | 96 | 73 | 1.7 | 7.0 | 0.00 | 0.00 | 0.00 | 57 | 1015.2 |
| 20260902202405 | 95 | 328 | 1.7 | 4.3 | 0.00 | 0.00 | 0.00 | 56 | 1015.3 |
| 20260902201904 | 95 | 350 | 1.7 | 7.0 | 0.00 | 0.00 | 0.00 | 57 | 1015.3 |
| 20260902201405 | 95 | 30 | 0.9 | 2.6 | 0.00 | 0.00 | 0.00 | 57 | 1015.3 |
| 20260902200904 | 95 | 310 | 1.7 | 5.2 | 0.00 | 0.00 | 0.00 | 56 | 1015.3 |
| 20260902195404 | 96 | 308 | 1.7 | 5.2 | 0.00 | 0.00 | 0.00 | 56 | 1015.5 |
| 20260902194905 | 96 | 266 | 0.9 | 2.6 | 0.00 | 0.00 | 0.00 | 57 | 1015.6 |
| 20260902194404 | 96 | 322 | 0.0 | 2.6 | 0.00 | 0.00 | 0.00 | 57 | 1015.6 |
| 20260902193904 | 95 | 340 | 0.9 | 2.6 | 0.00 | 0.00 | 0.00 | 57 | 1015.9 |
| 20260902192405 | 96 | 18 | 0.9 | 2.6 | 0.00 | 0.00 | 0.00 | 55 | 1016.0 |
| 20260902191904 | 96 | 239 | 0.9 | 1.7 | 0.00 | 0.00 | 0.00 | 56 | 1016.2 |
| 20260902191405 | 96 | 139 | 0.0 | 0.9 | 0.00 | 0.00 | 0.00 | 56 | 1016.0 |
| 20260902190905 | 95 | 247 | 0.9 | 4.3 | 0.00 | 0.00 | 0.00 | 57 | 1016.1 |
| 20260902185404 | 95 | 356 | 0.9 | 7.8 | 0.00 | 0.00 | 0.00 | 57 | 1016.1 |
| 20260902184904 | 94 | 332 | 0.9 | 2.6 | 0.00 | 0.00 | 0.00 | 58 | 1016.3 |
| 20260902184404 | 94 | 232 | 1.7 | 7.0 | 0.00 | 0.00 | 0.00 | 57 | 1016.3 |
| 20260902183904 | 94 | 300 | 0.9 | 2.6 | 0.00 | 0.00 | 0.00 | 56 | 1016.3 |
| 20260902183404 | 94 | 218 | 1.7 | 4.3 | 0.00 | 0.00 | 0.00 | 57 | 1016.3 |
| 20260902182904 | 94 | 187 | 0.9 | 2.6 | 0.00 | 0.00 | 0.00 | 59 | 1016.3 |
| 20260902182404 | 94 | 316 | 2.6 | 5.2 | 0.00 | 0.00 | 0.00 | 58 | 1016.2 |
| 20260902180404 | 94 | 335 | 0.9 | 4.3 | 0.00 | 0.00 | 0.00 | 59 | 1016.4 |
| 20260902175904 | 94 | 267 | 0.0 | 2.6 | 0.00 | 0.00 | 0.00 | 60 | 1016.4 |
| 20260902175404 | 94 | 11 | 0.0 | 2.6 | 0.00 | 0.00 | 0.00 | 62 | 1016.5 |
| 20260902174904 | 93 | 298 | 1.7 | 5.2 | 0.00 | 0.00 | 0.00 | 61 | 1016.5 |
| 20260902173404 | 93 | 217 | 0.0 | 6.1 | 0.00 | 0.00 | 0.00 | 62 | 1016.8 |
| 20260902172903 | 92 | 332 | 2.6 | 7.8 | 0.00 | 0.00 | 0.00 | 62 | 1016.8 |
| 20260902172404 | 92 | 277 | 0.9 | 4.3 | 0.00 | 0.00 | 0.00 | 63 | 1016.8 |
| 20260902171904 | 93 | 324 | 2.6 | 6.1 | 0.00 | 0.00 | 0.00 | 62 | 1016.9 |
| 20260902171404 | 93 | 343 | 1.7 | 4.3 | 0.00 | 0.00 | 0.00 | 62 | 1017.0 |
| 20260902170903 | 93 | 302 | 0.9 | 2.6 | 0.00 | 0.00 | 0.00 | 63 | 1017.0 |
| 20260902170404 | 93 | 353 | 1.7 | 4.3 | 0.00 | 0.00 | 0.00 | 62 | 1017.1 |
| 20260902165904 | 93 | 208 | 1.7 | 4.3 | 0.00 | 0.00 | 0.00 | 61 | 1017.0 |
| 20260902164904 | 93 | 337 | 0.9 | 4.3 | 0.00 | 0.00 | 0.00 | 62 | 1017.2 |
| 20260902164404 | 93 | 321 | 1.7 | 6.1 | 0.00 | 0.00 | 0.00 | 62 | 1017.2 |
| 20260902163404 | 92 | 338 | 2.6 | 7.8 | 0.00 | 0.00 | 0.00 | 62 | 1017.3 |
| 20260902162903 | 92 | 139 | 0.0 | 2.6 | 0.00 | 0.00 | 0.00 | 64 | 1017.2 |
| 20260902162404 | 92 | 281 | 1.7 | 5.2 | 0.00 | 0.00 | 0.00 | 64 | 1017.2 |
| 20260902161903 | 92 | 358 | 1.7 | 7.0 | 0.00 | 0.00 | 0.00 | 65 | 1017.2 |
| 20260902161404 | 91 | 0 | 0.0 | 1.7 | 0.00 | 0.00 | 0.00 | 66 | 1017.2 |
| 20260902160904 | 91 | 290 | 1.7 | 2.6 | 0.00 | 0.00 | 0.00 | 65 | 1017.3 |
| 20260902160403 | 91 | 311 | 1.7 | 5.2 | 0.00 | 0.00 | 0.00 | 67 | 1017.3 |
| 20260902155903 | 91 | 75 | 0.0 | 2.6 | 0.00 | 0.00 | 0.00 | 67 | 1017.3 |
| 20260902155403 | 90 | 44 | 0.9 | 2.6 | 0.00 | 0.00 | 0.00 | 68 | 1017.4 |
| 20260902154903 | 90 | 302 | 0.9 | 2.6 | 0.00 | 0.00 | 0.00 | 67 | 1017.5 |
| 20260902154403 | 90 | 297 | 0.9 | 2.6 | 0.00 | 0.00 | 0.00 | 69 | 1017.5 |
| 20260902153903 | 89 | 199 | 0.0 | 2.6 | 0.00 | 0.00 | 0.00 | 70 | 1017.5 |
| 20260902153403 | 89 | 349 | 0.9 | 2.6 | 0.00 | 0.00 | 0.00 | 69 | 1017.6 |
| 20260902152903 | 89 | 348 | 0.9 | 5.2 | 0.00 | 0.00 | 0.00 | 70 | 1017.7 |
| 20260902152404 | 89 | 300 | 0.9 | 2.6 | 0.00 | 0.00 | 0.00 | 70 | 1017.6 |
| 20260902151904 | 88 | 148 | 0.0 | 1.7 | 0.00 | 0.00 | 0.00 | 71 | 1017.7 |
| 20260902151403 | 88 | 356 | 1.7 | 4.3 | 0.00 | 0.00 | 0.00 | 71 | 1017.7 |
| 20260902150404 | 87 | 342 | 1.7 | 2.6 | 0.00 | 0.00 | 0.00 | 71 | 1017.7 |
| 20260902145908 | 87 | 350 | 0.9 | 5.2 | 0.00 | 0.00 | 0.00 | 71 | 1017.8 |
| 20260902145407 | 87 | 126 | 0.0 | 2.6 | 0.00 | 0.00 | 0.00 | 72 | 1017.8 |
| 20260902144408 | 86 | 282 | 0.9 | 2.6 | 0.00 | 0.00 | 0.00 | 75 | 1017.7 |
| 20260902143908 | 86 | 297 | 0.9 | 2.6 | 0.00 | 0.00 | 0.00 | 74 | 1017.7 |
| 20260902143407 | 86 | 264 | 0.9 | 2.6 | 0.00 | 0.00 | 0.00 | 75 | 1017.8 |
| 20260902142908 | 85 | 123 | 0.0 | 2.6 | 0.00 | 0.00 | 0.00 | 75 | 1017.7 |
| 20260902142407 | 85 | 331 | 0.9 | 2.6 | 0.00 | 0.00 | 0.00 | 75 | 1017.6 |
| 20260902141408 | 85 | 309 | 0.0 | 2.6 | 0.00 | 0.00 | 0.00 | 76 | 1017.7 |
| 20260902140908 | 84 | 271 | 0.9 | 2.6 | 0.00 | 0.00 | 0.00 | 77 | 1017.7 |
| 20260902135908 | 84 | 5 | 0.9 | 2.6 | 0.00 | 0.00 | 0.00 | 76 | 1017.7 |
| 20260902135407 | 84 | 38 | 0.0 | 1.7 | 0.00 | 0.00 | 0.00 | 77 | 1017.7 |
| 20260902134907 | 84 | 302 | 0.9 | 2.6 | 0.00 | 0.00 | 0.00 | 77 | 1017.7 |
| 20260902134407 | 83 | 5 | 0.0 | 1.7 | 0.00 | 0.00 | 0.00 | 77 | 1017.7 |
| 20260902133908 | 83 | 1 | 0.9 | 4.3 | 0.00 | 0.00 | 0.00 | 78 | 1017.7 |
| 20260902132908 | 83 | 68 | 0.0 | 2.6 | 0.00 | 0.00 | 0.00 | 78 | 1017.7 |
| 20260902132408 | 83 | 119 | 0.0 | 0.9 | 0.00 | 0.00 | 0.00 | 79 | 1017.7 |
| 20260902131407 | 82 | 97 | 0.0 | 0.0 | 0.00 | 0.00 | 0.00 | 81 | 1017.7 |
| 20260902130907 | 82 | 97 | 0.0 | 0.9 | 0.00 | 0.00 | 0.00 | 81 | 1017.7 |
| 20260902130408 | 81 | 99 | 0.0 | 0.9 | 0.00 | 0.00 | 0.00 | 82 | 1017.7 |
| 20260902125908 | 81 | 314 | 0.0 | 0.9 | 0.00 | 0.00 | 0.00 | 83 | 1017.7 |
| 20260902125408 | 80 | 305 | 0.0 | 0.0 | 0.00 | 0.00 | 0.00 | 84 | 1017.6 |
| 20260902124907 | 80 | 304 | 0.0 | 0.0 | 0.00 | 0.00 | 0.00 | 86 | 1017.6 |
| 20260902124407 | 79 | 304 | 0.0 | 0.0 | 0.00 | 0.00 | 0.00 | 87 | 1017.6 |
| 20260902123908 | 79 | 304 | 0.0 | 0.0 | 0.00 | 0.00 | 0.00 | 87 | 1017.6 |
| 20260902123407 | 78 | 304 | 0.0 | 0.0 | 0.00 | 0.00 | 0.00 | 89 | 1017.6 |
| 20260902122907 | 77 | 304 | 0.0 | 0.0 | 0.00 | 0.00 | 0.00 | 89 | 1017.6 |
| 20260902122407 | 77 | 304 | 0.0 | 0.0 | 0.00 | 0.00 | 0.00 | 90 | 1017.6 |
| 20260902121407 | 75 | 304 | 0.0 | 0.9 | 0.00 | 0.00 | 0.00 | 92 | 1017.4 |
| 20260902120907 | 75 | 293 | 0.0 | 0.9 | 0.00 | 0.00 | 0.00 | 94 | 1017.5 |
| 20260902115907 | 74 | 293 | 0.0 | 0.0 | 0.00 | 0.00 | 0.00 | 95 | 1017.4 |
| 20260902115407 | 73 | 293 | 0.0 | 0.0 | 0.00 | 0.00 | 0.00 | 96 | 1017.3 |
| 20260902113907 | 72 | 293 | 0.0 | 0.0 | 0.00 | 0.00 | 0.00 | 96 | 1017.2 |
| 20260902113407 | 72 | 293 | 0.0 | 0.0 | 0.00 | 0.00 | 0.00 | 96 | 1017.1 |
| 20260902112407 | 72 | 293 | 0.0 | 0.0 | 0.00 | 0.00 | 0.00 | 95 | 1017.0 |
| 20260902111407 | 72 | 293 | 0.0 | 0.0 | 0.00 | 0.00 | 0.00 | 95 | 1016.9 |
| 20260902110907 | 72 | 293 | 0.0 | 0.0 | 0.00 | 0.00 | 0.00 | 95 | 1016.8 |
| 20260902110407 | 73 | 293 | 0.0 | 0.0 | 0.00 | 0.00 | 0.00 | 95 | 1016.9 |
| 20260902105908 | 73 | 293 | 0.0 | 0.0 | 0.00 | 0.00 | 0.00 | 95 | 1016.9 |
| 20260902105407 | 73 | 293 | 0.0 | 0.0 | 0.00 | 0.00 | 0.00 | 94 | 1016.9 |
| 20260902104407 | 73 | 293 | 0.0 | 0.0 | 0.00 | 0.00 | 0.00 | 94 | 1016.8 |
| 20260902103907 | 73 | 293 | 0.0 | 0.0 | 0.00 | 0.00 | 0.00 | 94 | 1016.9 |
| 20260902102907 | 73 | 293 | 0.0 | 0.0 | 0.00 | 0.00 | 0.00 | 94 | 1016.8 |
| 20260902102407 | 73 | 293 | 0.0 | 0.0 | 0.00 | 0.00 | 0.00 | 94 | 1016.8 |
| 20260902101907 | 73 | 293 | 0.0 | 0.0 | 0.00 | 0.00 | 0.00 | 94 | 1016.8 |
| 20260902101407 | 73 | 293 | 0.0 | 0.0 | 0.00 | 0.00 | 0.00 | 94 | 1016.7 |
| 20260902100906 | 73 | 293 | 0.0 | 0.0 | 0.00 | 0.00 | 0.00 | 94 | 1016.9 |
| 20260902095907 | 73 | 293 | 0.0 | 0.0 | 0.00 | 0.00 | 0.00 | 94 | 1016.7 |
| 20260902094907 | 73 | 293 | 0.0 | 0.0 | 0.00 | 0.00 | 0.00 | 93 | 1016.8 |
| 20260902093906 | 74 | 293 | 0.0 | 0.0 | 0.00 | 0.00 | 0.00 | 93 | 1016.8 |
| 20260902093406 | 74 | 293 | 0.0 | 0.0 | 0.00 | 0.00 | 0.00 | 93 | 1016.8 |
| 20260902092906 | 74 | 293 | 0.0 | 0.0 | 0.00 | 0.00 | 0.00 | 92 | 1016.8 |
| 20260902091907 | 74 | 293 | 0.0 | 0.0 | 0.00 | 0.00 | 0.00 | 92 | 1016.7 |
| 20260902091406 | 74 | 293 | 0.0 | 0.0 | 0.00 | 0.00 | 0.00 | 93 | 1016.7 |
| 20260902090907 | 74 | 293 | 0.0 | 0.0 | 0.00 | 0.00 | 0.00 | 93 | 1016.7 |
| 20260902090407 | 74 | 293 | 0.0 | 0.0 | 0.00 | 0.00 | 0.00 | 93 | 1016.7 |
| 20260902085906 | 74 | 293 | 0.0 | 0.0 | 0.00 | 0.00 | 0.00 | 93 | 1016.6 |
| 20260902085406 | 74 | 293 | 0.0 | 0.0 | 0.00 | 0.00 | 0.00 | 93 | 1016.5 |
| 20260902084906 | 74 | 293 | 0.0 | 0.0 | 0.00 | 0.00 | 0.00 | 92 | 1016.5 |
| 20260902084406 | 74 | 293 | 0.0 | 0.0 | 0.00 | 0.00 | 0.00 | 92 | 1016.4 |
| 20260902083906 | 74 | 293 | 0.0 | 0.0 | 0.00 | 0.00 | 0.00 | 92 | 1016.4 |
| 20260902083407 | 74 | 293 | 0.0 | 0.0 | 0.00 | 0.00 | 0.00 | 92 | 1016.2 |
| 20260902082907 | 74 | 293 | 0.0 | 0.0 | 0.00 | 0.00 | 0.00 | 92 | 1016.2 |
| 20260902082406 | 74 | 293 | 0.0 | 0.0 | 0.00 | 0.00 | 0.00 | 92 | 1016.2 |
| 20260902081906 | 74 | 293 | 0.0 | 0.0 | 0.00 | 0.00 | 0.00 | 92 | 1016.2 |
| 20260902081406 | 74 | 293 | 0.0 | 0.0 | 0.00 | 0.00 | 0.00 | 92 | 1016.2 |
| 20260902080907 | 74 | 293 | 0.0 | 0.0 | 0.00 | 0.00 | 0.00 | 91 | 1016.1 |
| 20260902080407 | 74 | 293 | 0.0 | 0.0 | 0.00 | 0.00 | 0.00 | 91 | 1016.1 |
| 20260902075907 | 74 | 293 | 0.0 | 0.0 | 0.00 | 0.00 | 0.00 | 90 | 1016.1 |
| 20260902075407 | 75 | 293 | 0.0 | 0.0 | 0.00 | 0.00 | 0.00 | 90 | 1016.1 |
| 20260902074906 | 75 | 293 | 0.0 | 0.0 | 0.00 | 0.00 | 0.00 | 90 | 1016.1 |
| 20260902074406 | 75 | 293 | 0.0 | 0.0 | 0.00 | 0.00 | 0.00 | 90 | 1016.1 |
| 20260902073906 | 75 | 293 | 0.0 | 0.0 | 0.00 | 0.00 | 0.00 | 90 | 1016.1 |
| 20260902072407 | 75 | 293 | 0.0 | 0.0 | 0.00 | 0.00 | 0.00 | 90 | 1016.0 |
| 20260902071906 | 76 | 293 | 0.0 | 0.0 | 0.00 | 0.00 | 0.00 | 90 | 1016.1 |
| 20260902071406 | 76 | 293 | 0.0 | 0.0 | 0.00 | 0.00 | 0.00 | 89 | 1016.0 |
| 20260902070907 | 76 | 293 | 0.0 | 0.0 | 0.00 | 0.00 | 0.00 | 89 | 1016.0 |
| 20260902070407 | 76 | 293 | 0.0 | 0.0 | 0.00 | 0.00 | 0.00 | 89 | 1016.0 |
| 20260902065906 | 76 | 293 | 0.0 | 0.0 | 0.00 | 0.00 | 0.00 | 89 | 1016.0 |
| 20260902065406 | 76 | 293 | 0.0 | 0.0 | 0.00 | 0.00 | 0.00 | 88 | 1016.1 |
| 20260902064906 | 76 | 293 | 0.0 | 0.0 | 0.00 | 0.00 | 0.00 | 88 | 1016.0 |
| 20260902064407 | 76 | 293 | 0.0 | 0.0 | 0.00 | 0.00 | 0.00 | 88 | 1016.0 |
| 20260902063906 | 76 | 293 | 0.0 | 0.0 | 0.00 | 0.00 | 0.00 | 87 | 1016.0 |
| 20260902063407 | 77 | 293 | 0.0 | 0.0 | 0.00 | 0.00 | 0.00 | 87 | 1015.9 |
| 20260902062906 | 77 | 293 | 0.0 | 0.0 | 0.00 | 0.00 | 0.00 | 87 | 1015.9 |
| 20260902062406 | 77 | 293 | 0.0 | 0.0 | 0.00 | 0.00 | 0.00 | 87 | 1016.0 |
| 20260902061906 | 77 | 293 | 0.0 | 0.0 | 0.00 | 0.00 | 0.00 | 87 | 1016.0 |
| 20260902061407 | 77 | 293 | 0.0 | 0.0 | 0.00 | 0.00 | 0.00 | 86 | 1016.0 |
| 20260902060907 | 77 | 293 | 0.0 | 0.0 | 0.00 | 0.00 | 0.00 | 86 | 1016.0 |
| 20260902060407 | 77 | 293 | 0.0 | 0.0 | 0.00 | 0.00 | 0.00 | 86 | 1016.0 |
| 20260902055906 | 77 | 293 | 0.0 | 0.0 | 0.00 | 0.00 | 0.00 | 86 | 1016.0 |
| 20260902055406 | 77 | 293 | 0.0 | 0.0 | 0.00 | 0.00 | 0.00 | 86 | 1016.1 |
| 20260902054906 | 77 | 293 | 0.0 | 0.0 | 0.00 | 0.00 | 0.00 | 85 | 1016.0 |
| 20260902054406 | 77 | 293 | 0.0 | 0.0 | 0.00 | 0.00 | 0.00 | 85 | 1016.0 |
| 20260902053906 | 78 | 293 | 0.0 | 0.0 | 0.00 | 0.00 | 0.00 | 85 | 1016.1 |
| 20260902053406 | 78 | 293 | 0.0 | 0.0 | 0.00 | 0.00 | 0.00 | 85 | 1016.1 |
| 20260902052906 | 78 | 293 | 0.0 | 0.0 | 0.00 | 0.00 | 0.00 | 85 | 1016.1 |
| 20260902052406 | 78 | 293 | 0.0 | 0.0 | 0.00 | 0.00 | 0.00 | 85 | 1016.1 |
| 20260902051906 | 78 | 293 | 0.0 | 0.0 | 0.00 | 0.00 | 0.00 | 85 | 1016.1 |
| 20260902051405 | 78 | 293 | 0.0 | 0.0 | 0.00 | 0.00 | 0.00 | 84 | 1016.1 |
| 20260902050906 | 78 | 293 | 0.0 | 0.0 | 0.00 | 0.00 | 0.00 | 84 | 1016.1 |
| 20260902050406 | 78 | 293 | 0.0 | 0.0 | 0.00 | 0.00 | 0.00 | 83 | 1016.1 |
| 20260902045906 | 78 | 293 | 0.0 | 0.0 | 0.00 | 0.00 | 0.00 | 83 | 1016.1 |
| 20260902045406 | 79 | 293 | 0.0 | 0.0 | 0.00 | 0.00 | 0.00 | 83 | 1016.1 |
| 20260902044906 | 79 | 293 | 0.0 | 0.0 | 0.00 | 0.00 | 0.00 | 83 | 1016.1 |
| 20260902043406 | 79 | 293 | 0.0 | 0.0 | 0.00 | 0.00 | 0.00 | 82 | 1016.0 |
| 20260902042905 | 79 | 293 | 0.0 | 0.0 | 0.00 | 0.00 | 0.00 | 82 | 1016.0 |
| 20260902042405 | 79 | 293 | 0.0 | 0.0 | 0.00 | 0.00 | 0.00 | 81 | 1016.0 |
| 20260902041906 | 80 | 293 | 0.0 | 0.0 | 0.00 | 0.00 | 0.00 | 81 | 1016.0 |
| 20260902041406 | 80 | 293 | 0.0 | 0.0 | 0.00 | 0.00 | 0.00 | 81 | 1016.1 |
| 20260902040906 | 80 | 293 | 0.0 | 0.0 | 0.00 | 0.00 | 0.00 | 81 | 1016.1 |
| 20260902040405 | 80 | 293 | 0.0 | 0.0 | 0.00 | 0.00 | 0.00 | 80 | 1016.1 |
| 20260902034405 | 80 | 293 | 0.0 | 0.0 | 0.00 | 0.00 | 0.00 | 80 | 1016.1 |
| 20260902033906 | 81 | 293 | 0.0 | 0.0 | 0.00 | 0.00 | 0.00 | 79 | 1016.1 |
| 20260902032906 | 81 | 293 | 0.0 | 0.0 | 0.00 | 0.00 | 0.00 | 79 | 1016.1 |
| 20260902032405 | 81 | 293 | 0.0 | 0.0 | 0.00 | 0.00 | 0.00 | 79 | 1016.1 |
| 20260902031905 | 81 | 293 | 0.0 | 0.0 | 0.00 | 0.00 | 0.00 | 78 | 1016.0 |
| 20260902031406 | 81 | 293 | 0.0 | 0.0 | 0.00 | 0.00 | 0.00 | 78 | 1016.0 |
| 20260902030906 | 81 | 293 | 0.0 | 0.0 | 0.00 | 0.00 | 0.00 | 78 | 1016.1 |
| 20260902030406 | 81 | 293 | 0.0 | 0.0 | 0.00 | 0.00 | 0.00 | 78 | 1016.1 |
| 20260902025905 | 81 | 293 | 0.0 | 0.0 | 0.00 | 0.00 | 0.00 | 78 | 1016.1 |
| 20260902025405 | 81 | 293 | 0.0 | 0.0 | 0.00 | 0.00 | 0.00 | 77 | 1016.1 |
| 20260902024906 | 81 | 293 | 0.0 | 0.0 | 0.00 | 0.00 | 0.00 | 77 | 1016.1 |
| 20260902024405 | 82 | 293 | 0.0 | 0.0 | 0.00 | 0.00 | 0.00 | 77 | 1016.1 |
| 20260902023906 | 82 | 293 | 0.0 | 0.0 | 0.00 | 0.00 | 0.00 | 77 | 1016.1 |
| 20260902023406 | 82 | 293 | 0.0 | 0.0 | 0.00 | 0.00 | 0.00 | 76 | 1016.1 |
| 20260902022906 | 82 | 293 | 0.0 | 0.0 | 0.00 | 0.00 | 0.00 | 76 | 1016.1 |
| 20260902022406 | 82 | 293 | 0.0 | 0.0 | 0.00 | 0.00 | 0.00 | 76 | 1016.1 |
| 20260902021406 | 82 | 293 | 0.0 | 0.0 | 0.00 | 0.00 | 0.00 | 76 | 1016.0 |
| 20260902020406 | 82 | 293 | 0.0 | 0.0 | 0.00 | 0.00 | 0.00 | 76 | 1016.0 |
| 20260902015905 | 82 | 293 | 0.0 | 0.0 | 0.00 | 0.00 | 0.00 | 76 | 1016.0 |
| 20260902015406 | 82 | 293 | 0.0 | 0.0 | 0.00 | 0.00 | 0.00 | 76 | 1015.9 |
| 20260902014905 | 82 | 293 | 0.0 | 0.0 | 0.00 | 0.00 | 0.00 | 76 | 1015.9 |
| 20260902013406 | 83 | 293 | 0.0 | 0.0 | 0.00 | 0.00 | 0.00 | 75 | 1015.8 |
| 20260902012905 | 83 | 293 | 0.0 | 0.0 | 0.00 | 0.00 | 0.00 | 75 | 1015.8 |
| 20260902012405 | 83 | 293 | 0.0 | 0.0 | 0.00 | 0.00 | 0.00 | 74 | 1015.8 |
| 20260902011905 | 84 | 293 | 0.0 | 0.0 | 0.00 | 0.00 | 0.00 | 73 | 1015.7 |
| 20260902011405 | 84 | 293 | 0.0 | 0.0 | 0.00 | 0.00 | 0.00 | 72 | 1015.6 |
| 20260902010905 | 84 | 293 | 0.0 | 0.0 | 0.00 | 0.00 | 0.00 | 71 | 1015.6 |
| 20260902010405 | 85 | 293 | 0.0 | 0.0 | 0.00 | 0.00 | 0.00 | 70 | 1015.5 |
| 20260902005906 | 85 | 293 | 0.0 | 0.0 | 0.00 | 0.00 | 0.00 | 70 | 1015.5 |
| 20260902005405 | 85 | 293 | 0.0 | 0.0 | 0.00 | 0.00 | 0.00 | 70 | 1015.5 |
| 20260902004906 | 86 | 293 | 0.0 | 0.0 | 0.00 | 0.00 | 0.00 | 68 | 1015.4 |
| 20260902004405 | 86 | 293 | 0.0 | 0.0 | 0.00 | 0.00 | 0.00 | 68 | 1015.4 |
| 20260902003905 | 86 | 293 | 0.0 | 0.0 | 0.00 | 0.00 | 0.00 | 67 | 1015.4 |
| 20260902003405 | 87 | 293 | 0.0 | 0.0 | 0.00 | 0.00 | 0.00 | 67 | 1015.5 |
| 20260902002906 | 87 | 293 | 0.0 | 0.9 | 0.00 | 0.00 | 0.00 | 66 | 1015.5 |
| 20260902001905 | 87 | 21 | 0.0 | 0.0 | 0.00 | 0.00 | 0.00 | 65 | 1015.4 |
| 20260902001405 | 88 | 21 | 0.0 | 0.9 | 0.00 | 0.00 | 0.00 | 65 | 1015.5 |
| 20260902000406 | 88 | 312 | 0.0 | 0.0 | 0.00 | 0.00 | 0.00 | 63 | 1015.6 |
| 20260901235905 | 89 | 304 | 0.0 | 0.0 | 0.00 | 0.00 | 0.00 | 63 | 1015.6 |
| 20260901235405 | 89 | 304 | 0.0 | 0.0 | 0.00 | 0.00 | 0.00 | 62 | 1015.6 |
| 20260901234905 | 90 | 304 | 0.0 | 0.0 | 0.00 | 0.00 | 0.00 | 61 | 1015.6 |
| 20260901234405 | 91 | 304 | 0.0 | 0.0 | 0.00 | 0.00 | 0.00 | 60 | 1015.6 |
| 20260901233905 | 91 | 304 | 0.0 | 0.9 | 0.00 | 0.00 | 0.00 | 59 | 1015.7 |
| 20260901233404 | 92 | 293 | 0.0 | 0.9 | 0.00 | 0.00 | 0.00 | 57 | 1015.6 |
| 20260901232905 | 93 | 244 | 0.0 | 0.9 | 0.00 | 0.00 | 0.00 | 56 | 1015.7 |
| 20260901232405 | 94 | 264 | 0.0 | 0.0 | 0.00 | 0.00 | 0.00 | 55 | 1015.7 |
| 20260901231906 | 95 | 15 | 0.0 | 0.0 | 0.00 | 0.00 | 0.00 | 55 | 1015.7 |